weather.gov     
National Weather Service

Terminal Aerodrome Forecast
NWS Homepage
This page is being discontinued on March 12, 2014.
The same data is available at this site. Please update your bookmarks.
Thank you, and we apologize for the inconvenience.
Please send an email to SR-SRH.Webmaster@noaa.gov with any concerns.


Current Version
Previous Version:    01  02  03  04  05  06  07  08  09  10  11  12  13  14  15  16  17  18  19  20  21  22  23  24  25  26  27  28  29  30  
   31  32  33  34  35  36  37  38  39  
[Printable]
907
FTUS41 KPHI 210500
TAFTTN
TAF
KTTN 210530Z 2106/2206 VRB03KT P6SM BKN012
      TEMPO 2106/2109 BKN009
     FM210900 VRB02KT 4SM BR BKN009
      TEMPO 2112/2115 BKN015
     FM211500 18005KT P6SM SCT020 BKN100
     FM211900 25005KT P6SM SCT250
     FM220400 28005KT P6SM SCT050=


U.S. Dept. of Commerce
NOAA National Weather Service
1325 East West Highway
Silver Spring, MD 20910
E-mail: w-nws.webmaster@noaa.gov
Page last modified: May 16, 2007
NATIONAL WEATHER SERVICE: for Safety, for Work, for Fun - FOR LIFE